Location: Newark
(45.8511°N, 10.8245°E)
Time: 23:26:43
(UTC+00:00)

OTV 5 (USA 277) - Pass Details

Date: 29 August 2019
Orbit: 295 x 339 km, 54.5° (Epoch: 08 September)

Event Time Altitude Azimuth Distance (km) Brightness Sun altitude
Rises 20:42:05 0° 298° (WNW) 1,996 ? -24.8°
Reaches altitude 10° 20:44:50 10° 331° (NNW) 1,167 ? -25.2°
Enters shadow 20:45:20 12° 342° (NNW) 1,089 ? -25.2°
